When you browse on this site, cookies collect data to enhance your experience and personalize the content and advertising you see.
Visit our Privacy Policy to learn more. By continuing to use the site, you agree to this use of cookies and data.

Météo par heure à Apatzingán de la Constitución

Ce jour, 3 Juillet, Vendredi

Heure Température Précipitation Vent Pression Humidité
00:00 +26°C° 0 mm 1 m/s 731 mmHg 78%
01:00 +24°C° 0 mm 0 m/s 731 mmHg 79%
02:00 +23°C° 0 mm 0 m/s 731 mmHg 80%
03:00 +23°C° 0.7 mm 0 m/s 731 mmHg 83%
04:00 +22°C° 0.7 mm 0 m/s 731 mmHg 86%
05:00 +22°C° 0.7 mm 0 m/s 731 mmHg 89%
06:00 +24°C° 0.3 mm 0 m/s 732 mmHg 84%
07:00 +25°C° 0.3 mm 0 m/s 732 mmHg 79%
08:00 +27°C° 0.3 mm 0 m/s 732 mmHg 75%
09:00 +31°C° 0.1 mm 1 m/s 732 mmHg 68%
10:00 +33°C° 0.1 mm 1 m/s 732 mmHg 61%
11:00 +35°C° 0.1 mm 1 m/s 732 mmHg 55%
12:00 +36°C° 0.3 mm 1 m/s 731 mmHg 51%
13:00 +37°C° 0.3 mm 1 m/s 731 mmHg 48%
14:00 +39°C° 0.3 mm 1 m/s 730 mmHg 45%
15:00 +37°C° 0.4 mm 1 m/s 730 mmHg 47%
16:00 +36°C° 0.4 mm 1 m/s 730 mmHg 49%
17:00 +35°C° 0.4 mm 1 m/s 730 mmHg 50%
18:00 +33°C° 0.6 mm 1 m/s 730 mmHg 57%
19:00 +31°C° 0.6 mm 2 m/s 731 mmHg 63%
20:00 +29°C° 0.6 mm 2 m/s 731 mmHg 69%
21:00 +28°C° 0.3 mm 2 m/s 731 mmHg 73%
22:00 +27°C° 0.3 mm 1 m/s 732 mmHg 77%
23:00 +26°C° 0.3 mm 1 m/s 732 mmHg 81%

Demain, 4 Juillet, Samedi

Heure Température Précipitation Vent Pression Humidité
00:00 +25°C° 0.5 mm 1 m/s 732 mmHg 82%
01:00 +23°C° 0.5 mm 0 m/s 731 mmHg 83%
02:00 +22°C° 0.5 mm 0 m/s 731 mmHg 84%
03:00 +22°C° 0.2 mm 0 m/s 731 mmHg 85%
04:00 +22°C° 0.2 mm 0 m/s 732 mmHg 85%
05:00 +22°C° 0.2 mm 0 m/s 732 mmHg 86%
06:00 +24°C° 0 mm 0 m/s 732 mmHg 81%
07:00 +25°C° 0 mm 0 m/s 732 mmHg 77%
08:00 +29°C° 0 mm 1 m/s 733 mmHg 72%
09:00 +31°C° 0.1 mm 1 m/s 733 mmHg 66%
10:00 +33°C° 0.1 mm 1 m/s 732 mmHg 59%
11:00 +35°C° 0.1 mm 1 m/s 732 mmHg 53%
12:00 +36°C° 0.3 mm 1 m/s 732 mmHg 50%
13:00 +36°C° 0.3 mm 1 m/s 731 mmHg 48%
14:00 +37°C° 0.3 mm 1 m/s 731 mmHg 45%
15:00 +36°C° 0.5 mm 1 m/s 730 mmHg 47%
16:00 +33°C° 0.5 mm 0 m/s 730 mmHg 50%
17:00 +32°C° 0.5 mm 0 m/s 730 mmHg 52%
18:00 +31°C° 0.1 mm 0 m/s 730 mmHg 58%
19:00 +31°C° 0.1 mm 1 m/s 731 mmHg 63%
20:00 +29°C° 0.1 mm 1 m/s 731 mmHg 69%
21:00 +28°C° 0.2 mm 1 m/s 731 mmHg 73%
22:00 +28°C° 0.2 mm 1 m/s 732 mmHg 76%
23:00 +27°C° 0.2 mm 1 m/s 732 mmHg 79%

Après-demain, 5 Juillet, Dimanche

Heure Température Précipitation Vent Pression Humidité
00:00 +27°C° 0.7 mm 1 m/s 732 mmHg 84%
01:00 +24°C° 0.7 mm 0 m/s 731 mmHg 88%
02:00 +24°C° 0.7 mm 0 m/s 731 mmHg 92%
03:00 +23°C° 0.6 mm 0 m/s 731 mmHg 93%
04:00 +23°C° 0.6 mm 0 m/s 731 mmHg 94%
05:00 +23°C° 0.6 mm 0 m/s 731 mmHg 94%
06:00 +24°C° 0.1 mm 0 m/s 731 mmHg 90%
07:00 +26°C° 0.1 mm 0 m/s 732 mmHg 86%
08:00 +27°C° 0.1 mm 0 m/s 732 mmHg 81%
09:00 +29°C° 0.1 mm 0 m/s 732 mmHg 73%
10:00 +33°C° 0.1 mm 1 m/s 732 mmHg 65%
11:00 +35°C° 0.1 mm 1 m/s 731 mmHg 57%
12:00 +36°C° 0.3 mm 1 m/s 731 mmHg 54%
13:00 +36°C° 0.3 mm 1 m/s 730 mmHg 52%
14:00 +37°C° 0.3 mm 1 m/s 730 mmHg 49%
15:00 +36°C° 0.1 mm 1 m/s 729 mmHg 50%
16:00 +35°C° 0.1 mm 1 m/s 729 mmHg 52%
17:00 +33°C° 0.1 mm 0 m/s 728 mmHg 54%
18:00 +33°C° 0.1 mm 1 m/s 729 mmHg 60%
19:00 +31°C° 0.1 mm 1 m/s 729 mmHg 66%
20:00 +29°C° 0.1 mm 1 m/s 730 mmHg 72%
21:00 +28°C° 0.6 mm 1 m/s 730 mmHg 76%
22:00 +27°C° 0.6 mm 1 m/s 730 mmHg 81%
23:00 +26°C° 0.6 mm 1 m/s 731 mmHg 85%

6 Juillet, Lundi

Heure Température Précipitation Vent Pression Humidité
00:00 +24°C° 1.1 mm 0 m/s 731 mmHg 88%
01:00 +24°C° 1.1 mm 0 m/s 730 mmHg 90%
02:00 +23°C° 1.1 mm 0 m/s 730 mmHg 93%
03:00 +23°C° 0.4 mm 0 m/s 730 mmHg 93%
04:00 +23°C° 0.4 mm 0 m/s 731 mmHg 93%
05:00 +23°C° 0.4 mm 0 m/s 731 mmHg 93%
06:00 +24°C° 0 mm 0 m/s 731 mmHg 89%
07:00 +26°C° 0 mm 0 m/s 731 mmHg 84%
08:00 +27°C° 0 mm 0 m/s 732 mmHg 80%
09:00 +31°C° 0 mm 1 m/s 732 mmHg 71%
10:00 +33°C° 0 mm 1 m/s 731 mmHg 61%
11:00 +35°C° 0 mm 1 m/s 731 mmHg 52%
12:00 +36°C° 0.1 mm 1 m/s 730 mmHg 50%
13:00 +36°C° 0.1 mm 1 m/s 730 mmHg 47%
14:00 +37°C° 0.1 mm 1 m/s 729 mmHg 45%
15:00 +36°C° 0.1 mm 1 m/s 729 mmHg 47%
16:00 +36°C° 0.1 mm 1 m/s 729 mmHg 49%
17:00 +35°C° 0.1 mm 1 m/s 729 mmHg 50%
18:00 +33°C° 0.3 mm 1 m/s 729 mmHg 58%
19:00 +30°C° 0.3 mm 1 m/s 730 mmHg 66%
20:00 +28°C° 0.3 mm 1 m/s 730 mmHg 74%
21:00 +27°C° 0.9 mm 1 m/s 730 mmHg 79%
22:00 +27°C° 0.9 mm 1 m/s 731 mmHg 83%
23:00 +26°C° 0.9 mm 1 m/s 731 mmHg 87%

7 Juillet, Mardi

Heure Température Précipitation Vent Pression Humidité
00:00 +26°C° 1.8 mm 1 m/s 731 mmHg 89%
01:00 +25°C° 1.8 mm 1 m/s 731 mmHg 91%
02:00 +25°C° 1.8 mm 1 m/s 731 mmHg 92%
03:00 +25°C° 0.2 mm 1 m/s 731 mmHg 92%
04:00 +23°C° 0.2 mm 0 m/s 731 mmHg 92%
05:00 +23°C° 0.2 mm 0 m/s 732 mmHg 92%
06:00 +24°C° 0 mm 0 m/s 732 mmHg 88%
07:00 +25°C° 0 mm 0 m/s 732 mmHg 84%
08:00 +27°C° 0 mm 0 m/s 733 mmHg 79%
09:00 +31°C° 0.1 mm 1 m/s 733 mmHg 71%
10:00 +33°C° 0.1 mm 1 m/s 733 mmHg 62%
11:00 +35°C° 0.1 mm 1 m/s 732 mmHg 54%
12:00 +35°C° 0.2 mm 1 m/s 732 mmHg 52%
13:00 +36°C° 0.2 mm 1 m/s 731 mmHg 51%
14:00 +36°C° 0.2 mm 1 m/s 731 mmHg 49%
15:00 +34°C° 0.2 mm 0 m/s 730 mmHg 52%
16:00 +33°C° 0.2 mm 0 m/s 730 mmHg 55%
17:00 +32°C° 0.2 mm 0 m/s 730 mmHg 58%
18:00 +32°C° 0.4 mm 1 m/s 730 mmHg 64%
19:00 +30°C° 0.4 mm 1 m/s 731 mmHg 70%
20:00 +28°C° 0.4 mm 1 m/s 731 mmHg 77%
21:00 +27°C° 0.6 mm 1 m/s 732 mmHg 79%
22:00 +27°C° 0.6 mm 1 m/s 732 mmHg 81%
23:00 +26°C° 0.6 mm 1 m/s 733 mmHg 84%

8 Juillet, Mercredi

Heure Température Précipitation Vent Pression Humidité
00:00 +26°C° 0 mm 1 m/s 732 mmHg 82%
01:00 +25°C° 0 mm 1 m/s 732 mmHg 80%
02:00 +25°C° 0 mm 1 m/s 732 mmHg 79%
03:00 +24°C° 0 mm 1 m/s 732 mmHg 78%
04:00 +24°C° 0 mm 1 m/s 732 mmHg 76%
05:00 +24°C° 0 mm 1 m/s 732 mmHg 75%
06:00 +26°C° 0 mm 1 m/s 732 mmHg 72%
07:00 +28°C° 0 mm 1 m/s 732 mmHg 68%
08:00 +28°C° 0 mm 0 m/s 733 mmHg 64%
09:00 +32°C° 0 mm 1 m/s 732 mmHg 59%
10:00 +33°C° 0 mm 1 m/s 732 mmHg 53%
11:00 +35°C° 0 mm 1 m/s 732 mmHg 48%
12:00 +36°C° 0.1 mm 1 m/s 732 mmHg 46%
13:00 +36°C° 0.1 mm 1 m/s 731 mmHg 44%
14:00 +37°C° 0.1 mm 1 m/s 730 mmHg 41%
15:00 +36°C° 0.2 mm 1 m/s 730 mmHg 47%
16:00 +35°C° 0.2 mm 1 m/s 730 mmHg 52%
17:00 +33°C° 0.2 mm 1 m/s 730 mmHg 57%
18:00 +32°C° 0.1 mm 1 m/s 731 mmHg 60%
19:00 +30°C° 0.1 mm 1 m/s 731 mmHg 64%
20:00 +29°C° 0.1 mm 1 m/s 732 mmHg 67%
21:00 +28°C° 0.8 mm 1 m/s 732 mmHg 74%
22:00 +27°C° 0.8 mm 1 m/s 732 mmHg 81%
23:00 +26°C° 0.8 mm 1 m/s 733 mmHg 87%
Voir plus